FW1272 Weather Reports


time (UTC)temp
C
wind
direction
speed
KPH
gust
KPH
rain 1hr
cm
rain 24hr
cm
rain mn
cm
humidity
%
barometer
mb
20260906132050 27 182 8.0 11.3 0.00 0.00 0.00 85 1013.8
20260906131550 26 77 6.4 11.3 0.00 0.00 0.00 87 1013.8
20260906130551 25 270 0.0 6.4 0.00 0.00 0.00 91 1013.9
20260906130052 25 176 0.0 11.3 0.00 0.00 0.00 93 1013.9
20260906125552 25 184 3.2 11.3 0.00 0.00 0.00 93 1013.8
20260906125038 25 149 0.0 11.3 0.00 0.00 0.00 94 1013.8
20260906124803 24 116 3.2 11.3 0.00 0.00 0.00 94 1013.7
20260906124259 24 136 0.0 6.4 0.00 0.00 0.00 95 1013.9
20260906123538 24 187 0.0 6.4 0.00 0.00 0.00 95 1013.6
20260906123038 24 125 3.2 6.4 0.00 0.00 0.00 95 1013.8
20260906122538 24 302 1.6 11.3 0.00 0.00 0.00 95 1013.7
20260906122038 23 13 8.0 11.3 0.00 0.00 0.00 95 1013.6
20260906121538 23 328 0.0 0.0 0.00 0.00 0.00 95 1013.5
20260906121038 23 328 0.0 3.2 0.00 0.00 0.00 95 1013.3
20260906120540 23 195 0.0 3.2 0.00 0.00 0.00 95 1013.4
20260906120039 23 195 0.0 3.2 0.00 0.00 0.00 95 1013.2
20260906115542 23 195 0.0 0.0 0.00 0.00 0.00 95 1013.4
20260906115038 23 196 0.0 3.2 0.00 0.00 0.00 95 1013.0
20260906114538 23 195 0.0 3.2 0.00 0.00 0.00 95 1013.4
20260906114038 23 236 0.0 3.2 0.00 0.00 0.00 95 1013.2
20260906113539 23 200 0.0 3.2 0.00 0.00 0.00 95 1013.2
20260906113040 23 217 0.0 3.2 0.00 0.00 0.00 95 1013.3
20260906112539 23 252 1.6 3.2 0.00 0.00 0.00 95 1013.2
20260906112039 23 204 0.0 0.0 0.00 0.00 0.00 95 1013.0
20260906111539 23 208 0.0 0.0 0.00 0.00 0.00 95 1013.1
20260906111038 23 209 0.0 3.2 0.00 0.00 0.00 95 1013.1
20260906110803 23 210 0.0 6.4 0.00 0.00 0.00 95 1013.0
20260906110256 23 108 0.0 6.4 0.00 0.00 0.00 95 1013.0
20260906105539 23 84 3.2 6.4 0.00 0.00 0.00 95 1013.2
20260906105040 23 257 0.0 0.0 0.00 0.00 0.00 95 1013.1
20260906104540 23 258 0.0 0.0 0.00 0.00 0.00 95 1013.0
20260906104027 23 299 0.0 0.0 0.00 0.00 0.00 95 1012.9
20260906103526 23 198 0.0 0.0 0.00 0.00 0.00 95 1012.9
20260906103026 23 251 0.0 0.0 0.00 0.00 0.00 95 1012.9
20260906102514 23 252 0.0 0.0 0.00 0.00 0.00 95 1012.8
20260906102233 23 252 0.0 0.0 0.00 0.00 0.00 95 1012.7
20260906101515 23 218 0.0 3.2 0.00 0.00 0.00 95 1012.7
20260906101015 23 222 0.0 6.4 0.00 0.00 0.00 95 1012.8
20260906100514 23 265 3.2 6.4 0.00 0.00 0.00 95 1012.9
20260906100502 24 257 0.0 0.0 0.00 0.00 0.00 95 1013.0
20260906095516 23 252 0.0 0.0 0.00 0.00 0.00 95 1012.8
20260906095016 23 252 0.0 0.0 0.00 0.00 0.00 95 1012.9
20260906094736 23 252 0.0 0.0 0.00 0.00 0.00 95 1012.7
20260906094014 23 252 0.0 0.0 0.00 0.00 0.00 95 1012.5
20260906093516 24 252 0.0 0.0 0.00 0.00 0.00 95 1012.6
20260906093015 24 225 0.0 0.0 0.00 0.00 0.00 95 1012.8
20260906092515 24 223 0.0 3.2 0.00 0.00 0.00 95 1012.9
20260906092016 24 183 0.0 3.2 0.00 0.00 0.00 95 1013.0
20260906091515 24 201 0.0 0.0 0.00 0.00 0.00 95 1013.0
20260906091239 24 199 0.0 0.0 0.00 0.00 0.00 95 1013.0
20260906090514 24 256 0.0 3.2 0.00 0.00 0.00 95 1013.1
20260906090014 24 227 0.0 3.2 0.00 0.00 0.00 95 1013.2
20260906085514 24 226 0.0 3.2 0.00 0.00 0.00 95 1012.9
20260906085014 24 226 0.0 3.2 0.00 0.00 0.00 95 1012.7
20260906084514 24 226 0.0 3.2 0.00 0.00 0.00 95 1012.6
20260906084233 24 226 0.0 3.2 0.00 0.00 0.00 95 1012.6
20260906083514 24 204 0.0 6.4 0.00 0.00 0.00 95 1012.6
20260906083015 24 179 3.2 6.4 0.00 0.00 0.00 95 1012.6
20260906082514 24 208 0.0 3.2 0.00 0.00 0.00 95 1012.8
20260906082014 24 211 0.0 3.2 0.00 0.00 0.00 95 1012.6
20260906082000 24 266 1.6 3.2 0.00 0.00 0.00 95 1012.7
20260906081234 24 208 0.0 0.0 0.00 0.00 0.00 95 1012.4
20260906080516 24 208 0.0 0.0 0.00 0.00 0.00 95 1012.4
20260906080016 25 208 0.0 0.0 0.00 0.00 0.00 95 1012.5
20260906075514 25 208 0.0 0.0 0.00 0.00 0.00 95 1012.5
20260906075014 25 208 0.0 0.0 0.00 0.00 0.00 95 1012.2
20260906074515 25 207 0.0 0.0 0.00 0.00 0.00 95 1012.3
20260906074016 25 207 0.0 0.0 0.00 0.00 0.00 95 1012.2
20260906073736 25 208 0.0 0.0 0.00 0.00 0.00 95 1012.4
20260906073018 25 208 0.0 0.0 0.00 0.00 0.00 95 1012.2
20260906072514 25 208 0.0 0.0 0.00 0.00 0.00 95 1012.3
20260906072014 25 209 0.0 0.0 0.00 0.00 0.00 95 1012.5
20260906071516 25 208 0.0 0.0 0.00 0.00 0.00 95 1012.4
20260906071014 25 208 0.0 0.0 0.00 0.00 0.00 95 1012.5
20260906070514 25 208 0.0 0.0 0.00 0.00 0.00 95 1012.5
20260906070014 24 208 0.0 0.0 0.00 0.00 0.00 95 1012.2
20260906065517 25 207 0.0 0.0 0.00 0.00 0.00 95 1012.4
20260906065015 25 207 0.0 0.0 0.00 0.00 0.00 95 1012.1
20260906064738 25 209 0.0 0.0 0.00 0.00 0.00 95 1012.1
20260906064015 25 208 0.0 3.2 0.00 0.00 0.00 95 1012.3
20260906063516 25 208 0.0 3.2 0.00 0.00 0.00 95 1012.3
20260906063016 25 208 3.2 6.4 0.00 0.00 0.00 95 1012.3
20260906062515 25 206 3.2 6.4 0.00 0.00 0.00 95 1012.5
20260906062017 25 225 0.0 0.0 0.00 0.00 0.00 95 1012.6
20260906061733 25 206 0.0 0.0 0.00 0.00 0.00 95 1012.8
20260906061242 25 202 0.0 0.0 0.00 0.00 0.00 95 1012.8
20260906060515 25 251 0.0 0.0 0.00 0.00 0.00 95 1012.9
20260906060238 25 251 0.0 3.2 0.00 0.00 0.00 95 1012.9
20260906055738 25 251 0.0 6.4 0.00 0.00 0.00 94 1012.7
20260906055015 25 251 0.0 6.4 0.00 0.00 0.00 94 1012.7
20260906054514 25 226 0.0 3.2 0.00 0.00 0.00 94 1012.8
20260906054014 25 226 0.0 6.4 0.00 0.00 0.00 94 1012.9
20260906053516 25 226 0.0 6.4 0.00 0.00 0.00 94 1012.8
20260906053240 25 174 0.0 0.0 0.00 0.00 0.00 95 1012.9
20260906052514 25 174 0.0 3.2 0.00 0.00 0.00 95 1012.9
20260906052015 25 173 0.0 3.2 0.00 0.00 0.00 95 1012.9
20260906051516 25 186 0.0 3.2 0.00 0.00 0.00 95 1012.9
20260906051015 25 186 0.0 0.0 0.00 0.00 0.00 94 1012.8
20260906050515 25 187 0.0 0.0 0.00 0.00 0.00 94 1013.0
20260906050015 25 186 0.0 0.0 0.00 0.00 0.00 94 1013.1
20260906045516 25 186 0.0 0.0 0.00 0.00 0.00 94 1012.8
20260906045002 25 186 0.0 0.0 0.00 0.00 0.00 94 1012.9
20260906044450 25 187 0.0 0.0 0.00 0.00 0.00 94 1013.0
20260906043951 25 186 0.0 0.0 0.00 0.00 0.00 94 1012.9
20260906043452 25 187 0.0 3.2 0.00 0.00 0.00 93 1013.0
20260906042941 25 187 0.0 3.2 0.00 0.00 0.00 93 1013.0
20260906042439 25 187 0.0 3.2 0.00 0.00 0.00 93 1013.1
20260906042157 25 186 0.0 3.2 0.00 0.00 0.00 93 1013.1
20260906041427 26 186 0.0 0.0 0.00 0.00 0.00 92 1013.1
20260906040917 26 186 0.0 3.2 0.00 0.00 0.00 92 1013.1
20260906040850 26 186 0.0 3.2 0.00 0.00 0.00 92 1013.2
20260906035850 26 186 0.0 0.0 0.00 0.00 0.00 92 1013.2
20260906035339 26 186 0.0 3.2 0.00 0.00 0.00 91 1013.0
20260906034839 26 185 0.0 3.2 0.00 0.00 0.00 91 1013.0
20260906034341 26 196 1.6 3.2 0.00 0.00 0.00 90 1013.2
20260906033827 26 211 0.0 6.4 0.00 0.00 0.00 89 1013.2
20260906033555 26 279 4.8 6.4 0.00 0.00 0.00 89 1013.3
20260906033048 26 258 1.6 6.4 0.00 0.00 0.00 90 1013.1
20260906032316 26 182 0.0 3.2 0.00 0.00 0.00 90 1013.3
20260906031816 26 182 3.2 3.2 0.00 0.00 0.00 89 1013.2
20260906031314 26 182 0.0 3.2 0.00 0.00 0.00 89 1013.2
20260906030802 26 182 3.2 3.2 0.00 0.00 0.00 88 1013.0
20260906030302 26 194 0.0 3.2 0.00 0.00 0.00 88 1013.1
20260906025802 27 193 3.2 6.4 0.00 0.00 0.00 88 1012.8
20260906025252 27 287 0.0 6.4 0.00 0.00 0.00 87 1012.8
20260906024752 27 256 3.2 6.4 0.00 0.00 0.00 87 1012.9
20260906024251 27 247 0.0 11.3 0.00 0.00 0.00 86 1012.9
20260906023739 27 225 3.2 11.3 0.00 0.00 0.00 86 1013.0
20260906023238 27 246 1.6 6.4 0.00 0.00 0.00 86 1013.0
20260906022739 27 191 0.0 14.5 0.00 0.00 0.00 85 1013.2
20260906022729 27 249 8.0 14.5 0.00 0.00 0.00 86 1013.0
20260906021727 27 40 3.2 11.3 0.00 0.00 0.00 85 1013.2
20260906021226 27 103 4.8 11.3 0.00 0.00 0.00 84 1013.0
20260906020717 28 187 3.2 14.5 0.00 0.00 0.00 83 1013.1
20260906020215 28 146 11.3 14.5 0.00 0.00 0.00 82 1013.2
20260906015716 29 169 3.2 14.5 0.00 0.00 0.00 78 1013.0
20260906015204 30 107 6.4 22.5 0.00 0.00 0.00 74 1013.0
20260906014703 30 160 4.8 22.5 0.00 0.00 0.00 74 1012.6
20260906014202 30 223 8.0 19.3 0.00 0.00 0.00 73 1012.8
20260906013652 30 271 4.8 19.3 0.00 0.00 0.00 73 1012.6
20260906013408 30 268 4.8 6.4 0.00 0.00 0.00 76 1012.4
20260906012652 30 218 3.2 6.4 0.00 0.00 0.00 72 1012.3
20260906012141 30 205 3.2 11.3 0.00 0.00 0.00 72 1012.2
20260906011638 30 215 0.0 14.5 0.00 0.00 0.00 73 1012.1
20260906011141 30 203 3.2 14.5 0.00 0.00 0.00 74 1012.2
20260906010628 28 180 0.0 11.3 0.00 0.00 0.00 82 1011.9
20260906010128 29 191 4.8 11.3 0.00 0.00 0.00 83 1011.9
20260906005628 29 218 0.0 6.4 0.00 0.00 0.00 82 1011.7
20260906005116 29 213 0.0 6.4 0.00 0.00 0.00 82 1011.8
20260906004828 29 86 1.6 6.4 0.00 0.00 0.00 81 1011.4
20260906004053 29 88 0.0 11.3 0.00 0.00 0.00 79 1011.5
20260906003552 28 9 8.0 11.3 0.00 0.00 0.00 79 1011.0
20260906003308 28 335 1.6 3.2 0.00 0.00 0.00 81 1010.9
20260906002540 29 334 0.0 0.0 0.00 0.00 0.00 81 1011.0
20260906002305 29 335 0.0 0.0 0.00 0.00 0.00 79 1010.9
20260906001806 30 336 0.0 0.0 0.00 0.00 0.00 78 1010.9
20260906001026 30 335 0.0 3.2 0.00 0.00 0.00 78 1010.9
20260906000751 30 335 0.0 3.2 0.00 0.00 0.00 79 1011.0
20260906000026 30 334 3.2 3.2 0.00 0.00 0.00 75 1010.9
20260905235515 31 335 0.0 3.2 0.00 0.00 0.00 73 1011.1
20260905235015 31 335 0.0 0.0 0.00 0.00 0.00 66 1011.0
20260905234515 32 335 0.0 0.0 0.00 0.00 0.00 63 1011.3
20260905234005 32 335 0.0 0.0 0.00 0.00 0.00 62 1011.3
20260905233502 33 335 0.0 3.2 0.00 0.00 0.00 59 1011.3
20260905233004 33 335 0.0 3.2 0.00 0.00 0.00 59 1011.2
20260905232450 34 335 1.6 3.2 0.00 0.00 0.00 54 1011.2
20260905231953 35 335 0.0 0.0 0.00 0.00 0.00 55 1011.1
20260905231450 35 335 0.0 3.2 0.00 0.00 0.00 51 1010.9
20260905231204 35 335 0.0 3.2 0.00 0.00 0.00 53 1010.9
20260905230439 36 335 0.0 3.2 0.00 0.00 0.00 57 1010.8
20260905225939 36 335 0.0 3.2 0.00 0.00 0.00 57 1010.9
20260905225652 36 335 0.0 3.2 0.00 0.00 0.00 53 1010.8
20260905224928 36 335 0.0 3.2 0.00 0.00 0.00 47 1010.8
20260905224426 36 335 0.0 6.4 0.00 0.00 0.00 52 1010.9
20260905223916 36 336 4.8 6.4 0.00 0.00 0.00 51 1011.0
20260905223416 36 336 0.0 6.4 0.00 0.00 0.00 48 1010.9
20260905222914 36 63 3.2 6.4 0.00 0.00 0.00 47 1011.0
20260905222414 36 319 3.2 11.3 0.00 0.00 0.00 46 1011.1
20260905221916 36 14 6.4 11.3 0.00 0.00 0.00 48 1011.1
20260905221415 36 266 1.6 11.3 0.00 0.00 0.00 46 1011.0
20260905220915 36 151 1.6 11.3 0.00 0.00 0.00 46 1010.9
20260905220414 36 338 3.2 19.3 0.00 0.00 0.00 45 1010.8
20260905215914 36 32 3.2 19.3 0.00 0.00 0.00 48 1010.9
20260905215636 37 278 4.8 14.5 0.00 0.00 0.00 46 1011.1
20260905214918 37 136 6.4 19.3 0.00 0.00 0.00 49 1011.1
20260905214414 37 352 6.4 19.3 0.00 0.00 0.00 44 1011.2
20260905213917 37 222 8.0 14.5 0.00 0.00 0.00 44 1010.9
20260905213415 37 213 4.8 14.5 0.00 0.00 0.00 45 1011.1
20260905213137 37 302 3.2 11.3 0.00 0.00 0.00 47 1011.0
20260905212414 36 302 3.2 14.5 0.00 0.00 0.00 50 1011.2
20260905211914 36 317 6.4 14.5 0.00 0.00 0.00 48 1011.2
20260905211415 35 240 4.8 11.3 0.00 0.00 0.00 51 1011.3
20260905210914 35 29 0.0 3.2 0.00 0.00 0.00 59 1011.1
20260905210416 35 29 3.2 11.3 0.00 0.00 0.00 57 1011.2
20260905205916 35 29 0.0 11.3 0.00 0.00 0.00 56 1011.4
20260905205415 36 263 1.6 14.5 0.00 0.00 0.00 53 1011.2
20260905205134 36 266 4.8 14.5 0.00 0.00 0.00 50 1011.2
20260905204414 36 270 0.0 14.5 0.00 0.00 0.00 47 1011.4
20260905203916 35 52 1.6 14.5 0.00 0.00 0.00 55 1011.6
20260905203416 36 303 3.2 11.3 0.00 0.00 0.00 54 1011.6
20260905202916 36 297 1.6 6.4 0.00 0.00 0.00 51 1011.6
20260905202416 35 302 3.2 6.4 0.00 0.00 0.00 52 1011.6
20260905201915 35 301 3.2 11.3 0.00 0.00 0.00 49 1011.6
20260905201641 36 16 4.8 11.3 0.00 0.00 0.00 49 1011.6
20260905201135 36 181 0.0 11.3 0.00 0.00 0.00 46 1011.7
20260905200416 37 242 8.0 19.3 0.00 0.00 0.00 44 1011.6
20260905195917 36 134 6.4 19.3 0.00 0.00 0.00 47 1011.7
20260905195414 36 359 1.6 19.3 0.00 0.00 0.00 47 1011.8
20260905194914 37 85 14.5 19.3 0.00 0.00 0.00 45 1012.0
20260905194415 37 66 6.4 14.5 0.00 0.00 0.00 43 1012.1
20260905194128 36 357 0.0 25.7 0.00 0.00 0.00 48 1012.0
20260905194011 37 204 3.2 14.5 0.00 0.00 0.00 46 1012.1
20260905193137 36 76 6.4 25.7 0.00 0.00 0.00 46 1012.1
20260905192414 37 86 12.9 25.7 0.00 0.00 0.00 47 1012.3
20260905192135 37 264 3.2 19.3 0.00 0.00 0.00 46 1012.5
20260905191414 37 273 14.5 33.8 0.00 0.00 0.00 46 1012.2
20260905190916 36 104 0.0 33.8 0.00 0.00 0.00 49 1012.6
20260905190414 36 157 6.4 25.7 0.00 0.00 0.00 45 1012.5
20260905185916 37 90 11.3 22.5 0.00 0.00 0.00 47 1012.6
20260905185414 36 124 6.4 22.5 0.00 0.00 0.00 48 1012.7
20260905184916 36 70 11.3 22.5 0.00 0.00 0.00 50 1012.5
20260905184414 36 86 8.0 19.3 0.00 0.00 0.00 48 1012.8
20260905183915 36 49 0.0 19.3 0.00 0.00 0.00 47 1012.9
20260905183641 36 335 8.0 25.7 0.00 0.00 0.00 53 1013.0
20260905182915 36 320 19.3 25.7 0.00 0.00 0.00 51 1013.0
20260905182414 36 275 6.4 19.3 0.00 0.00 0.00 50 1013.2
20260905181914 36 82 16.1 22.5 0.00 0.00 0.00 50 1013.4
20260905181414 36 129 1.6 22.5 0.00 0.00 0.00 50 1013.3
20260905180914 36 95 11.3 25.7 0.00 0.00 0.00 49 1013.5
20260905180416 35 157 6.4 25.7 0.00 0.00 0.00 53 1013.4
20260905175633 35 206 1.6 22.5 0.00 0.00 0.00 52 1013.8
20260905175133 35 100 11.3 22.5 0.00 0.00 0.00 53 1013.9
20260905174416 36 3 8.0 14.5 0.00 0.00 0.00 51 1013.8
20260905173915 35 344 3.2 14.5 0.00 0.00 0.00 53 1013.6
20260905173414 35 85 3.2 14.5 0.00 0.00 0.00 53 1013.8
20260905172916 35 144 0.0 22.5 0.00 0.00 0.00 54 1014.0
20260905172414 35 317 1.6 22.5 0.00 0.00 0.00 57 1014.1
20260905171915 35 244 8.0 19.3 0.00 0.00 0.00 56 1014.2
20260905171414 35 91 6.4 14.5 0.00 0.00 0.00 54 1014.2
20260905170914 35 16 0.0 22.5 0.00 0.00 0.00 56 1014.3
20260905170415 34 214 0.0 22.5 0.00 0.00 0.00 59 1014.3
20260905165915 35 179 4.8 19.3 0.00 0.00 0.00 62 1014.3
20260905165637 34 81 1.6 19.3 0.00 0.00 0.00 65 1014.2
20260905164914 34 144 0.0 11.3 0.00 0.00 0.00 63 1014.5
20260905164414 34 191 4.8 14.5 0.00 0.00 0.00 63 1014.4
20260905163914 33 141 6.4 14.5 0.00 0.00 0.00 63 1014.6
20260905163416 33 186 3.2 14.5 0.00 0.00 0.00 64 1014.6
20260905162916 33 122 3.2 14.5 0.00 0.00 0.00 66 1014.7
20260905162414 33 121 6.4 19.3 0.00 0.00 0.00 65 1014.7
20260905161914 33 86 6.4 19.3 0.00 0.00 0.00 67 1014.7
20260905161414 33 126 6.4 14.5 0.00 0.00 0.00 65 1014.8
20260905160914 33 166 8.0 11.3 0.00 0.00 0.00 67 1014.8
20260905155914 32 136 1.6 14.5 0.00 0.00 0.00 69 1014.7
20260905155414 32 221 0.0 11.3 0.00 0.00 0.00 70 1014.8
20260905154915 31 229 4.8 11.3 0.00 0.00 0.00 72 1014.8
20260905154414 31 261 4.8 11.3 0.00 0.00 0.00 72 1014.9
20260905153914 31 219 6.4 14.5 0.00 0.00 0.00 72 1014.9
20260905153414 31 0 0.0 14.5 0.00 0.00 0.00 73 1014.8
20260905152914 31 128 9.7 14.5 0.00 0.00 0.00 72 1014.9
20260905152414 31 247 3.2 14.5 0.00 0.00 0.00 75 1015.0
20260905151914 31 157 3.2 11.3 0.00 0.00 0.00 72 1015.1
20260905151634 30 350 3.2 14.5 0.00 0.00 0.00 74 1015.2
20260905150914 30 9 1.6 14.5 0.00 0.00 0.00 75 1015.0
20260905150638 30 76 1.6 14.5 0.00 0.00 0.00 76 1015.1
20260905145914 31 114 6.4 11.3 0.00 0.00 0.00 75 1015.0
20260905145414 31 164 3.2 6.4 0.00 0.00 0.00 74 1015.1
20260905145139 30 146 0.0 6.4 0.00 0.00 0.00 74 1015.1
20260905144414 30 144 3.2 11.3 0.00 0.00 0.00 75 1015.2
20260905143913 29 105 3.2 11.3 0.00 0.00 0.00 76 1015.4
20260905143414 28 306 4.8 11.3 0.00 0.00 0.00 80 1015.2
20260905143138 28 326 8.0 11.3 0.00 0.03 0.00 78 1015.2
20260905142637 28 329 6.4 11.3 0.00 0.03 0.00 80 1015.3
20260905142136 28 224 0.0 6.4 0.00 0.03 0.00 82 1015.4
20260905141414 27 222 4.8 11.3 0.00 0.03 0.00 83 1015.2
20260905140914 28 206 6.4 11.3 0.00 0.03 0.00 82 1015.4
20260905140414 27 136 6.4 11.3 0.00 0.03 0.00 82 1015.5
20260905135915 27 243 3.2 11.3 0.00 0.03 0.00 85 1015.4
20260905135632 27 172 0.0 6.4 0.00 0.03 0.00 83 1015.5
20260905134915 27 245 3.2 6.4 0.00 0.03 0.00 85 1015.5
20260905134414 27 105 0.0 6.4 0.00 0.03 0.00 85 1015.5
20260905134142 27 195 1.6 3.2 0.00 0.03 0.00 85 1015.5
20260905133414 27 162 0.0 3.2 0.00 0.03 0.00 84 1015.5
20260905132915 26 159 1.6 3.2 0.00 0.03 0.00 87 1015.7
20260905132414 26 255 1.6 6.4 0.00 0.03 0.00 89 1015.8